Weather History for Glens Falls, NY

Change the Weather History Date:

Wednesday, March 6, 2013

  Actual Average Record
Temperature  
Mean Temperature 31 °F 27 °F  
Max Temperature 40 °F 38 °F 58 °F (1974)
Min Temperature 21 °F 16 °F -17 °F (2007)
Degree Days  
Heating Degree Days 34 38  
Month to date heating degree days 212 233  
Since 1 July heating degree days 5313 5853  
Cooling Degree Days 0 0  
Month to date cooling degree days 0 0  
Year to date cooling degree days 0 0  
Moisture  
Dew Point 24 °F    
Average Humidity 70    
Maximum Humidity 92    
Minimum Humidity 48    
Precipitation  
Precipitation 0.00 in 0.09 in 1.02 in (2011)
Month to date precipitation 0.02 0.54  
Year to date precipitation 2.32 5.48  
Sea Level Pressure  
Sea Level Pressure 30.13 in    
Wind  
Wind Speed 9 mph (NE)    
Max Wind Speed 22 mph    
Max Gust Speed 26 mph    
Visibility 10 miles    
Events      
T = Trace of Precipitation, MM = Missing Value Source: NWS Daily Summary

Daily Weather History Graph

Daily Weather History Graph

Search for Another Location

Airport:

Trip Planner

Search our weather history database for the weather conditions in past years. The results will help you decide how hot, cold, wet, or windy it might be!

Date:

Astronomy

Mar. 06, 2013 Rise Set
Actual Time 6:21 AM EST 5:50 PM EST
Civil Twilight 5:53 AM EST 6:18 PM EST
Nautical Twilight 5:20 AM EST 6:51 PM EST
Astronomical Twilight 4:47 AM EST 7:24 PM EST
Moon 2:35 AM EST (3/6) 12:21 PM EST (3/6)
Length of Visible Light 12h 25m
Length of Day
11h 28m
Waning Crescent, 30% of the Moon is Illuminated
Mar 6
Waning Crescent
Mar 11
New
Mar 19
First Quarter
Mar 27
Full
Apr 3
Last Quarter

Hourly Weather History & Observations

Time (EST) Temp. Windchill Dew Point Humidity Pressure Visibility Wind Dir Wind Speed Gust Speed Precip Events Conditions
12:53 AM 27.0 °F - 24.1 °F 89% 30.10 in 10.0 mi Calm Calm - N/A   Scattered Clouds
1:53 AM 24.1 °F - 21.0 °F 88% 30.09 in 10.0 mi Calm Calm - N/A   Mostly Cloudy
2:53 AM 26.1 °F 21.9 °F 21.9 °F 84% 30.09 in 10.0 mi NNE 3.5 mph - N/A   Mostly Cloudy
3:53 AM 28.0 °F 22.8 °F 25.0 °F 88% 30.09 in 10.0 mi NE 4.6 mph - N/A   Overcast
4:53 AM 28.9 °F 22.8 °F 25.0 °F 85% 30.09 in 9.0 mi NNE 5.8 mph - N/A   Overcast
5:53 AM 30.0 °F 25.2 °F 26.1 °F 85% 30.09 in 9.0 mi NNE 4.6 mph - N/A   Overcast
6:53 AM 30.9 °F 26.2 °F 27.0 °F 85% 30.11 in 8.0 mi NNE 4.6 mph - N/A   Overcast
7:53 AM 32.0 °F 28.7 °F 28.0 °F 85% 30.13 in 9.0 mi NNE 3.5 mph - N/A   Overcast
8:53 AM 35.1 °F 29.3 °F 28.0 °F 76% 30.12 in 10.0 mi North 6.9 mph - N/A   Overcast
9:53 AM 37.0 °F 27.7 °F 28.0 °F 70% 30.13 in 10.0 mi NE 16.1 mph - N/A   Overcast
10:53 AM 37.9 °F 30.0 °F 28.0 °F 68% 30.13 in 10.0 mi NE 12.7 mph - N/A   Overcast
11:53 AM 39.0 °F 31.0 °F 26.1 °F 60% 30.12 in 10.0 mi ENE 13.8 mph 23.0 mph N/A   Overcast
12:53 PM 39.0 °F 30.6 °F 25.0 °F 57% 30.13 in 10.0 mi ENE 15.0 mph 25.3 mph N/A   Overcast
1:53 PM 37.9 °F 30.5 °F 24.1 °F 57% 30.14 in 10.0 mi ENE 11.5 mph 21.9 mph N/A   Overcast
2:53 PM 39.0 °F 31.8 °F 24.1 °F 55% 30.14 in 10.0 mi NE 11.5 mph 18.4 mph N/A   Overcast
3:53 PM 39.0 °F 32.3 °F 23.0 °F 53% 30.13 in 10.0 mi NE 10.4 mph - N/A   Overcast
4:53 PM 39.0 °F 30.3 °F 21.9 °F 50% 30.14 in 10.0 mi NE 16.1 mph 20.7 mph N/A   Overcast
5:53 PM 37.0 °F 30.4 °F 23.0 °F 57% 30.15 in 10.0 mi ENE 9.2 mph - N/A   Overcast
6:53 PM 37.0 °F 28.5 °F 23.0 °F 57% 30.17 in 10.0 mi ENE 13.8 mph 18.4 mph N/A   Overcast
7:53 PM 36.0 °F 29.0 °F 21.9 °F 57% 30.18 in 10.0 mi ENE 9.2 mph - N/A   Overcast
8:53 PM 36.0 °F 27.1 °F 21.0 °F 55% 30.18 in 10.0 mi ENE 13.8 mph 20.7 mph N/A   Mostly Cloudy
9:53 PM 35.1 °F 27.9 °F 21.9 °F 59% 30.17 in 10.0 mi NE 9.2 mph - N/A   Overcast
10:53 PM 35.1 °F 27.9 °F 21.0 °F 57% 30.17 in 10.0 mi NE 9.2 mph - N/A   Overcast
11:53 PM 34.0 °F 26.0 °F 19.9 °F 56% 30.16 in 10.0 mi NE 10.4 mph - N/A   Overcast